FW6569 Weather Reports


Display with metric or nautical units.
time (UTC)temp
F
wind
direction
speed
MPH
gust
MPH
rain 1hr
in
rain 24hr
in
rain mn
in
humidity
%
barometer
mb
20260506215527 61 292 2.0 6.0 0.00 1.33 0.36 50 1014.7
20260506214526 60 294 3.0 7.0 0.00 1.36 0.36 52 1014.7
20260506213526 59 321 3.0 6.0 0.00 1.39 0.36 50 1014.8
20260506212526 59 330 3.0 6.0 0.00 1.43 0.36 51 1014.7
20260506211526 59 336 3.0 5.0 0.00 1.49 0.36 51 1014.6
20260506210527 60 358 4.0 7.0 0.00 1.52 0.36 50 1014.6
20260506205526 61 360 4.0 8.0 0.00 1.55 0.36 49 1014.5
20260506204527 61 332 3.0 6.0 0.00 1.55 0.36 51 1014.4
20260506203526 60 11 3.0 7.0 0.00 1.55 0.36 54 1014.4
20260506202526 60 348 3.0 6.0 0.00 1.55 0.36 55 1014.4
20260506201547 60 296 2.0 5.0 0.00 1.55 0.36 52 1014.4
20260506200547 59 8 2.0 5.0 0.00 1.55 0.36 52 1014.5
20260506195526 59 4 3.0 6.0 0.00 1.55 0.36 52 1014.6
20260506194527 59 246 4.0 6.0 0.00 1.55 0.36 53 1014.6
20260506193526 59 34 2.0 4.0 0.00 1.55 0.36 55 1014.5
20260506192527 59 347 3.0 6.0 0.00 1.56 0.36 55 1014.6
20260506191527 60 277 4.0 8.0 0.00 1.57 0.36 54 1014.5
20260506190547 61 351 3.0 4.0 0.00 1.58 0.36 54 1014.4
20260506185547 60 317 2.0 6.0 0.00 1.61 0.36 57 1014.3
20260506184527 59 7 4.0 6.0 0.00 1.62 0.36 55 1014.3
20260506183527 59 255 4.0 9.0 0.00 1.63 0.36 55 1014.3
20260506182527 58 15 5.0 7.0 0.00 1.65 0.36 56 1014.3
20260506181527 58 290 2.0 4.0 0.00 1.67 0.36 57 1014.5
20260506180527 58 25 2.0 4.0 0.00 1.67 0.36 56 1014.4
20260506175527 58 7 2.0 4.0 0.00 1.67 0.36 53 1014.5
20260506174527 58 351 3.0 6.0 0.00 1.73 0.36 54 1014.6
20260506173608 57 15 5.0 9.0 0.00 1.74 0.36 56 1014.6
20260506172547 58 360 3.0 7.0 0.00 1.74 0.36 53 1014.8
20260506171547 59 357 3.0 6.0 0.00 1.74 0.36 52 1014.8
20260506170547 60 239 3.0 5.0 0.00 1.74 0.36 51 1014.9
20260506165547 60 355 4.0 8.0 0.00 1.74 0.36 54 1014.8
20260506164527 58 350 3.0 6.0 0.00 1.74 0.36 58 1014.7
20260506163527 56 6 7.0 9.0 0.00 1.74 0.36 55 1014.6
20260506162527 57 1 4.0 9.0 0.00 1.74 0.36 55 1014.8
20260506161527 58 356 5.0 12.0 0.00 1.74 0.36 57 1014.8
20260506160528 56 354 3.0 6.0 0.00 1.74 0.36 60 1014.8
20260506155527 56 14 7.0 11.0 0.00 1.74 0.36 59 1014.6
20260506154527 56 20 3.0 6.0 0.00 1.74 0.36 63 1014.5
20260506153527 56 11 6.0 10.0 0.00 1.74 0.36 61 1014.4
20260506152607 55 9 6.0 10.0 0.00 1.74 0.36 63 1014.7
20260506151527 55 10 4.0 7.0 0.00 1.74 0.36 64 1014.9
20260506150548 55 2 3.0 6.0 0.00 1.74 0.36 65 1014.6
20260506145527 53 15 3.0 6.0 0.00 1.74 0.36 66 1014.4
20260506144527 52 4 4.0 8.0 0.00 1.74 0.36 69 1014.5
20260506143527 52 7 4.0 7.0 0.00 1.74 0.36 72 1014.3
20260506142527 51 7 5.0 8.0 0.00 1.74 0.36 74 1013.8
20260506141527 50 17 6.0 8.0 0.00 1.74 0.36 75 1013.5
20260506140527 49 353 4.0 7.0 0.00 1.74 0.36 77 1013.3
20260506135527 49 18 6.0 9.0 0.00 1.74 0.36 77 1013.2
20260506134528 49 8 4.0 6.0 0.00 1.74 0.36 80 1013.3
20260506133527 49 11 4.0 7.0 0.00 1.74 0.36 81 1013.5
20260506132527 48 2 2.0 4.0 0.00 1.74 0.36 84 1013.6
20260506131528 48 22 1.0 3.0 0.00 1.74 0.36 86 1013.5
20260506130527 47 355 1.0 3.0 0.00 1.74 0.36 88 1013.5
20260506125528 47 349 2.0 4.0 0.00 1.75 0.36 88 1013.2
20260506124547 47 341 0.0 2.0 0.00 1.75 0.36 91 1013.5
20260506123528 46 285 0.0 2.0 0.00 1.75 0.36 91 1013.3
20260506122528 46 319 2.0 3.0 0.00 1.75 0.36 92 1013.2
20260506121527 45 248 1.0 4.0 0.00 1.75 0.36 93 1013.3
20260506120527 45 0.0 0.0 0.00 1.75 0.36 94 1013.0
20260506115528 45 314 1.0 4.0 0.00 1.75 0.36 95 1012.7
20260506114527 45 0.0 0.0 0.00 1.75 0.36 95 1012.4
20260506113528 44 0.0 0.0 0.00 1.75 0.36 95 1012.1
20260506112527 44 0.0 0.0 0.00 1.75 0.36 96 1011.8
20260506111548 44 0.0 0.0 0.00 1.75 0.36 95 1011.4
20260506110528 44 0.0 0.0 0.00 1.75 0.36 95 1011.3
20260506105527 43 0.0 0.0 0.00 1.75 0.36 95 1011.3
20260506104528 43 289 1.0 2.0 0.00 1.75 0.36 95 1010.7
20260506103528 43 8 2.0 4.0 0.00 1.75 0.36 95 1010.7
20260506102528 43 356 1.0 4.0 0.00 1.76 0.36 95 1011.0
20260506101528 43 14 1.0 3.0 0.00 1.77 0.36 94 1011.3
20260506100608 43 329 1.0 4.0 0.00 1.77 0.36 94 1011.1
20260506095528 43 270 1.0 3.0 0.00 1.78 0.36 94 1010.8
20260506094528 43 5 1.0 3.0 0.00 1.79 0.36 94 1010.3
20260506093608 43 12 3.0 7.0 0.00 1.81 0.36 94 1010.1
20260506092528 43 2 4.0 6.0 0.00 1.84 0.36 94 1010.1
20260506091528 43 356 4.0 6.0 0.01 1.88 0.36 94 1010.6
20260506090528 44 322 1.0 6.0 0.01 1.91 0.36 93 1010.8
20260506085528 43 349 3.0 6.0 0.01 1.95 0.36 92 1010.3
20260506084528 44 350 4.0 8.0 0.01 1.96 0.36 92 1009.7
20260506083528 44 346 4.0 7.0 0.01 1.98 0.36 91 1009.8
20260506082608 44 7 6.0 10.0 0.01 2.01 0.36 90 1009.7
20260506081528 44 0 7.0 10.0 0.00 2.02 0.35 90 1009.7
20260506080528 44 5 6.0 9.0 0.00 2.02 0.35 93 1009.9
20260506073528 44 338 2.0 4.0 0.04 2.02 0.35 92 1009.4
20260506072528 44 1 6.0 10.0 0.05 2.02 0.35 90 1009.3
20260506071528 44 352 8.0 13.0 0.08 2.02 0.35 93 1009.2
20260506070528 45 14 10.0 17.0 0.08 2.02 0.35 95 1009.0
20260506061548 47 354 7.0 13.0 0.02 1.94 0.27 96 1009.4
20260506060528 47 354 6.0 9.0 0.04 1.94 0.27 97 1009.3
20260506050528 48 356 7.0 10.0 0.17 1.90 0.23 97 1008.6
20260506044528 48 3 6.0 10.0 0.23 1.88 0.21 98 1008.3
20260506043528 49 352 6.0 10.0 0.23 1.86 0.19 98 1008.3
20260506042548 49 19 5.0 9.0 0.23 1.83 0.16 98 1008.8
20260506041528 49 1 4.0 7.0 0.21 1.79 0.12 98 1008.7
20260506040529 49 9 4.0 6.0 0.21 1.73 0.06 98 1008.5
20260506035528 49 5 5.0 11.0 0.19 1.67 1.67 98 1008.0
20260506034528 49 1 6.0 10.0 0.19 1.65 1.65 98 1007.9
20260506033548 49 8 7.0 9.0 0.17 1.63 1.63 98 1007.9
20260506032548 49 357 5.0 9.0 0.15 1.60 1.60 98 1008.2
20260506031528 50 357 5.0 10.0 0.14 1.58 1.58 97 1008.2
20260506030529 50 353 5.0 9.0 0.10 1.52 1.52 97 1008.8
20260506025528 50 355 6.0 9.0 0.07 1.48 1.48 97 1008.0
20260506024549 50 2 5.0 9.0 0.06 1.46 1.46 97 1007.9
20260506023529 50 4 5.0 9.0 0.08 1.46 1.46 97 1007.7
20260506022528 50 6 8.0 11.0 0.11 1.45 1.45 97 1007.7
20260506021550 50 12 6.0 9.0 0.12 1.44 1.44 97 1007.9
20260506020518 50 359 6.0 10.0 0.16 1.42 1.42 97 1008.1
20260506015519 50 7 7.0 11.0 0.20 1.41 1.41 97 1007.9
20260506014519 50 6 5.0 8.0 0.23 1.40 1.40 97 1008.2
20260506013518 50 7 7.0 10.0 0.22 1.38 1.38 97 1008.0
20260506012519 50 320 1.0 5.0 0.20 1.34 1.34 97 1008.6
20260506011518 50 359 3.0 7.0 0.22 1.32 1.32 97 1008.4
20260506010519 50 9 5.0 9.0 0.20 1.26 1.26 97 1008.3
20260506005519 51 347 3.0 7.0 0.18 1.21 1.21 97 1008.2
20260506004519 51 5 6.0 12.0 0.23 1.17 1.17 97 1008.1
20260506003539 51 357 6.0 11.0 0.26 1.16 1.16 96 1008.0
20260506002519 51 3 6.0 10.0 0.25 1.14 1.14 95 1008.1
20260506001519 52 12 7.0 14.0 0.23 1.10 1.10 94 1008.4
20260506000519 55 344 4.0 11.0 0.24 1.06 1.06 95 1008.3
20260505235519 58 332 4.0 11.0 0.26 1.03 1.03 97 1008.1
20260505234519 59 242 5.0 9.0 0.18 0.94 0.94 97 1007.6
20260505233519 59 206 7.0 9.0 0.14 0.90 0.90 96 1007.2
20260505232519 59 196 7.0 11.0 0.14 0.89 0.89 96 1007.2
20260505231519 59 214 9.0 13.0 0.13 0.87 0.87 96 1007.7
20260505230519 59 196 9.0 14.0 0.10 0.82 0.82 95 1007.8
20260505225519 59 199 9.0 13.0 0.07 0.77 0.77 94 1007.8
20260505224559 59 200 10.0 13.0 0.09 0.76 0.76 94 1007.8
20260505223539 59 197 11.0 18.0 0.12 0.76 0.76 96 1008.0
20260505222539 60 198 8.0 11.0 0.15 0.75 0.75 97 1008.0
20260505221519 60 212 5.0 8.0 0.20 0.74 0.74 97 1008.1
20260505220539 60 194 6.0 10.0 0.21 0.72 0.72 97 1008.1